Location: Malvern Link
(52.1333°N, 2.3000°W)
Time: 15:57:00
(UTC+00:00)

SO-50 - Pass Details

Date: 05 July 2022
Orbit: 585 x 698 km, 64.6° (Epoch: 11 August)

Event Time Altitude Azimuth Distance (km) Brightness Sun altitude
Exits shadow 23:03:17 21° 173° (S) 1,488 ? -13.6°
Maximum altitude 23:05:48 36° 121° (ESE) 1,065 ? -13.7°
Drops below altitude 10° 23:10:14 10° 55° (NE) 2,136 ? -13.9°
Sets 23:12:45 0° 47° (NE) 3,068 ? -14.0°
